[[{"header":{"parameterUnit":"m.s-1","parameterCategory":1,"la1":30.2991,"la2":30.254,"lo1":-89.0895,"lo2":-89.0444,"dy":0.0017,"dx":0.0017,"nx":28,"ny":28,"refTime":"2023-08-21T03:00:00:Z","depth":0,"parameterNumber":2,"parameterNumberName":"U-component_of_WINDS"},"data":[0,0,0,0,0,0,0,0,0,0,0,0,0,0,0,0,0,0,0,0,0,0,0,0,0,0,0,0,0,0,0,0,0,0,0,0,0,0,0,0,0,0,0,0,0,0,0,0,0,0,0,0,0,0,0,0,0,0,-3.348,-3.348,0,-3.3454,-3.3454,-3.3453,-3.3305,-3.3302,-3.3298,-3.3295,-3.327,-3.3272,-3.3275,0,0,0,0,0,0,0,0,0,0,0,0,0,-3.3404,-3.3406,-3.348,-3.348,-3.348,-3.3454,-3.3454,-3.3453,-3.3306,-3.3302,-3.3297,-3.3293,-3.3269,-3.3272,-3.3275,0,0,0,0,0,0,0,0,0,0,0,0,0,-3.3414,-3.3407,-3.348,-3.3403,-3.3396,-3.3454,-3.3454,-3.3453,-3.3307,-3.3302,-3.3296,-3.3291,-3.3268,-3.3272,-3.3276,-3.3407,0,0,-3.3288,-3.3289,0,0,0,0,0,0,0,0,-3.3413,-3.3417,-3.3415,-3.3409,-3.3401,-3.3377,-3.3417,-3.3438,-3.3308,-3.3341,-3.3295,-3.3289,-3.331,-3.331,-3.3317,-3.3405,-3.3404,-3.3288,-3.329,-3.3292,-3.3293,0,0,0,0,0,0,0,-3.3413,-3.3417,-3.347,-3.3415,-3.3406,-3.337,-3.3365,-3.3421,-3.3356,-3.3338,-3.3327,-3.3326,-3.3305,-3.3314,-3.3315,-3.3404,-3.3288,-3.3291,-3.3294,-3.3295,-3.3598,-3.3603,0,0,0,0,0,0,-3.3423,-3.3417,-3.3471,-3.3469,-3.3394,-3.3376,-3.3371,-3.339,-3.3355,-3.3344,-3.333,-3.3319,-3.3309,-3.3311,-3.3314,-3.3464,-3.3292,-3.3296,-3.3298,-3.3592,-3.3599,-3.3605,0,0,0,0,0,0,-3.3422,-3.3429,-3.3472,-3.344,-3.3443,-3.3383,-3.3406,-3.3393,-3.3401,-3.3349,-3.3337,-3.3351,-3.3305,-3.3308,-3.3384,-3.3461,-3.3298,-3.3301,-3.3585,-3.3594,-3.3602,-3.3766,0,0,0,0,0,0,-3.342,-3.343,-3.3479,-3.3443,-3.3445,-3.3543,-3.3411,-3.3396,-3.3408,-3.3393,-3.3365,-3.3355,-3.3301,-3.3379,-3.3388,-3.3463,-3.3304,-3.3578,-3.3589,-3.3599,-3.3753,-3.3779,-3.3801,0,0,0,0,0,-3.3418,-3.3526,-3.3482,-3.3489,-3.3505,-3.3548,-3.3549,-3.3484,-3.3415,-3.3463,-3.343,-3.3356,-3.3451,-3.3388,-3.3397,-3.3475,-3.3573,-3.3586,-3.3598,-3.3743,-3.3774,-3.38,0,0,0,0,0,0,-3.3574,-3.352,-3.347,-3.357,-3.3565,-3.3522,-3.3582,-3.352,-3.3534,-3.3519,-3.3439,-3.3434,-3.3522,-3.3506,-3.3436,-3.3599,-3.3499,-3.3515,-3.3606,-3.3635,-3.3659,-3.366,-3.3308,0,0,0,0,0,-3.362,-3.3658,-3.361,-3.3702,-3.3702,-3.3643,-3.3659,-3.361,-3.3601,-3.3598,-3.357,-3.3565,-3.3593,-3.3613,-3.3637,-3.3751,-3.3742,-3.3808,-3.3832,-3.3852,-3.3866,-3.3924,-3.3952,-3.3647,-3.3647,-3.3646,0,0,-3.3715,-3.3691,-3.372,-3.3733,-3.3723,-3.3764,-3.3642,-3.3692,-3.3722,-3.3605,-3.3675,-3.3655,-3.3643,-3.3739,-3.3779,-3.3728,-3.3948,-3.3868,-3.3884,-3.3887,-3.394,-3.3969,-3.3995,-3.3655,-3.3654,-3.3652,0,0,-3.391,-3.3896,-3.397,-3.3963,-3.3948,-3.3908,-3.3927,-3.3894,-3.3876,-3.3944,-3.3857,-3.3893,-3.3944,-3.3939,-3.3943,-3.4136,-3.4068,-3.4146,-3.427,-3.4327,-3.4351,-3.4372,-3.444,-3.4466,-3.416,-3.4161,-3.4161,0,-3.403,-3.4089,-3.4017,-3.4072,-3.408,-3.3976,-3.4051,-3.4047,-3.4042,-3.4051,-3.3993,-3.4054,-3.404,-3.4132,-3.4179,-3.4186,-3.4204,-3.4148,-3.4354,-3.4374,-3.4392,-3.4456,-3.4482,-3.417,-3.4169,-3.4168,-3.4167,0,-3.4237,-3.4279,-3.4342,-3.4338,-3.4353,-3.4418,-3.4357,-3.4381,-3.433,-3.4297,-3.4368,-3.4346,-3.4363,-3.4382,-3.4333,-3.4467,-3.4436,-3.4368,-3.4266,-3.4432,-3.4491,-3.4515,-3.4184,-3.418,-3.4177,-3.4175,0,0,-3.4529,-3.4484,-3.4508,-3.4504,-3.4481,-3.4512,-3.4573,-3.4589,-3.4611,-3.4611,-3.4659,-3.4705,-3.4641,-3.4646,-3.4596,-3.4647,-3.48,-3.4572,-3.4571,-3.4615,-3.4946,-3.4997,-3.5026,-3.4756,-3.476,-3.4764,-3.4946,0,-3.4714,-3.4813,-3.475,-3.486,-3.4898,-3.48,-3.4852,-3.4844,-3.4814,-3.4842,-3.4809,-3.4842,-3.4756,-3.4759,-3.4805,-3.4772,-3.4866,-3.4758,-3.48,-3.4802,-3.4805,-3.5057,-3.511,-3.5284,-3.4969,-3.4973,-3.4976,0,-3.4943,-3.4952,-3.5065,-3.5033,-3.5047,-3.5095,-3.5104,-3.5132,-3.5121,-3.5095,-3.5101,-3.5039,-3.5096,-3.4997,-3.5074,-3.5003,-3.5016,-3.5003,-3.5008,-3.5008,-3.4898,-3.5063,-3.5338,-3.5363,-3.5011,-3.5008,-3.5006,0,-3.5143,-3.5183,-3.5256,-3.5256,-3.5221,-3.5257,-3.5245,-3.5228,-3.5241,-3.5249,-3.5257,-3.5273,-3.5281,-3.5295,-3.5238,-3.5171,-3.5324,-3.5219,-3.5304,-3.5306,-3.5339,-3.5338,-3.5619,-3.5351,-3.535,-3.535,-3.5349,0,-3.5356,-3.5429,-3.5345,-3.5389,-3.5468,-3.5395,-3.5476,-3.5452,-3.5438,-3.5477,-3.5394,-3.5432,-3.5355,-3.5386,-3.5343,-3.5413,-3.5418,-3.5399,-3.5386,-3.5406,-3.5408,-3.5413,-3.5399,-3.5357,-3.5355,-3.5354,-3.5353,0,-3.5592,-3.5539,-3.5611,-3.5572,-3.5564,-3.5623,-3.559,-3.563,-3.5594,-3.5644,-3.5652,-3.5597,-3.5628,-3.5573,-3.5599,-3.5569,-3.5668,-3.5637,-3.5671,-3.5662,-3.5749,-3.5741,-3.6042,-3.6077,-3.5788,-3.5791,-3.5793,0,-3.573,-3.5784,-3.575,-3.5769,-3.5761,-3.5794,-3.5806,-3.5737,-3.5754,-3.5745,-3.5786,-3.5811,-3.5826,-3.5882,-3.5844,-3.5863,-3.5832,-3.5936,-3.5834,-3.5852,-3.5832,-3.5829,-3.5834,-3.5957,-3.596,-3.5963,-3.5965,0,-3.5982,-3.5953,-3.5974,-3.5986,-3.6003,-3.601,-3.601,-3.6031,-3.5958,-3.5981,-3.6012,-3.6024,-3.605,-3.6075,-3.6085,-3.6072,-3.6007,-3.5998,-3.6018,-3.6038,-3.6055,-3.6046,-3.5727,-3.5991,-3.5988,-3.5986,-3.5985,-3.5984,-3.6172,-3.6215,-3.6197,-3.6223,-3.6216,-3.6219,-3.6254,-3.6223,-3.6247,-3.6261,-3.6219,-3.626,-3.6247,-3.6253,-3.6247,-3.6279,-3.6232,-3.6262,-3.627,-3.6278,-3.6291,-3.6051,-3.628,-3.628,-3.6279,-3.6278,-3.6278,0,-3.6418,-3.6402,-3.6427,-3.6429,-3.645,-3.6386,-3.6384,-3.6405,-3.6442,-3.6435,-3.6452,-3.6487,-3.6511,-3.6476,-3.6494,-3.6526,-3.6497,-3.6533,-3.653,-3.6528,-3.6332,-3.6312,-3.6557,-3.6557,-3.6557,-3.6557,-3.6557,-3.6556,-3.6548,-3.6617,-3.6586,-3.665,-3.6633,-3.6671,-3.6675,-3.6677,-3.667,-3.6713,-3.6732,-3.6709,-3.6691,-3.6707,-3.6727,-3.6715,-3.6726,-3.6773,-3.6752,-3.6569,-3.6542,-3.6516,-3.6496,-3.6776,-3.6776,-3.6944,-3.6946,-3.6947]},{"header":{"parameterUnit":"m.s-1","parameterCategory":1,"la1":30.2991,"la2":30.254,"lo1":-89.0895,"lo2":-89.0444,"dy":0.0017,"dx":0.0017,"nx":28,"ny":28,"refTime":"2023-08-21T03:00:00:Z","depth":0,"parameterNumber":3,"parameterNumberName":"V-component_of_WINDS"},"data":[0,0,0,0,0,0,0,0,0,0,0,0,0,0,0,0,0,0,0,0,0,0,0,0,0,0,0,0,0,0,0,0,0,0,0,0,0,0,0,0,0,0,0,0,0,0,0,0,0,0,0,0,0,0,0,0,0,0,-0.4265,-0.4265,0,-0.4292,-0.4292,-0.4292,-0.4346,-0.4347,-0.4348,-0.4349,-0.4375,-0.4375,-0.4374,0,0,0,0,0,0,0,0,0,0,0,0,0,-0.4258,-0.4258,-0.4265,-0.4265,-0.4266,-0.4292,-0.4292,-0.4292,-0.4346,-0.4347,-0.4349,-0.435,-0.4375,-0.4375,-0.4374,0,0,0,0,0,0,0,0,0,0,0,0,0,-0.4271,-0.4258,-0.4265,-0.4296,-0.4299,-0.4292,-0.4292,-0.4293,-0.4346,-0.4347,-0.4349,-0.4351,-0.4375,-0.4375,-0.4374,-0.4339,0,0,-0.4373,-0.4373,0,0,0,0,0,0,0,0,-0.427,-0.4271,-0.4291,-0.4294,-0.4297,-0.4317,-0.4299,-0.4308,-0.4345,-0.4328,-0.4349,-0.4351,-0.4354,-0.4356,-0.4357,-0.434,-0.4341,-0.4373,-0.4372,-0.4372,-0.4372,0,0,0,0,0,0,0,-0.4269,-0.427,-0.4276,-0.4291,-0.4295,-0.4307,-0.4311,-0.4301,-0.4332,-0.433,-0.4333,-0.4336,-0.4356,-0.4357,-0.4358,-0.4342,-0.4373,-0.4372,-0.4372,-0.4372,-0.4295,-0.4294,0,0,0,0,0,0,-0.4264,-0.4269,-0.4275,-0.4276,-0.4287,-0.4306,-0.431,-0.4309,-0.4332,-0.4337,-0.4335,-0.4338,-0.4357,-0.4359,-0.4359,-0.4318,-0.4372,-0.4372,-0.4371,-0.4297,-0.4295,-0.4293,0,0,0,0,0,0,-0.4263,-0.4264,-0.4274,-0.4274,-0.4276,-0.4305,-0.4303,-0.4309,-0.431,-0.4336,-0.4341,-0.433,-0.4359,-0.436,-0.4343,-0.432,-0.4372,-0.4371,-0.4299,-0.4296,-0.4294,-0.4237,0,0,0,0,0,0,-0.4263,-0.4263,-0.4251,-0.4273,-0.4276,-0.4258,-0.4302,-0.4308,-0.4309,-0.4314,-0.4333,-0.4338,-0.436,-0.4344,-0.4343,-0.432,-0.4371,-0.4301,-0.4298,-0.4295,-0.4241,-0.4232,-0.4225,0,0,0,0,0,-0.4263,-0.4234,-0.425,-0.4251,-0.4261,-0.4257,-0.4258,-0.4285,-0.4307,-0.4294,-0.4311,-0.4337,-0.4323,-0.4342,-0.4341,-0.4318,-0.4303,-0.4299,-0.4295,-0.4244,-0.4234,-0.4225,0,0,0,0,0,0,-0.4208,-0.4237,-0.4256,-0.4233,-0.4242,-0.4266,-0.4251,-0.4273,-0.4276,-0.428,-0.4313,-0.4317,-0.4295,-0.4305,-0.4326,-0.4284,-0.4317,-0.4313,-0.4278,-0.4269,-0.4261,-0.4259,-0.437,0,0,0,0,0,-0.4194,-0.4188,-0.4214,-0.4192,-0.4195,-0.4222,-0.4221,-0.4241,-0.4251,-0.4255,-0.427,-0.4278,-0.4275,-0.4273,-0.4272,-0.4242,-0.4247,-0.4226,-0.4218,-0.4212,-0.4208,-0.4191,-0.4182,-0.428,-0.428,-0.428,0,0,-0.4163,-0.4179,-0.4173,-0.4181,-0.419,-0.4183,-0.4225,-0.4216,-0.421,-0.4253,-0.4238,-0.425,-0.4261,-0.4237,-0.4228,-0.4245,-0.4181,-0.4207,-0.4202,-0.4201,-0.4186,-0.4177,-0.4169,-0.4277,-0.4278,-0.4278,0,0,-0.4104,-0.4116,-0.4098,-0.4106,-0.4119,-0.4137,-0.4132,-0.4152,-0.4162,-0.4147,-0.4179,-0.4173,-0.4168,-0.4174,-0.4176,-0.4118,-0.4142,-0.4117,-0.4076,-0.406,-0.4052,-0.4045,-0.4023,-0.4015,-0.4112,-0.4112,-0.4112,0,-0.4065,-0.4056,-0.4086,-0.4074,-0.4076,-0.4115,-0.4096,-0.4102,-0.4114,-0.4114,-0.4133,-0.4127,-0.4137,-0.4115,-0.41,-0.4101,-0.4096,-0.4115,-0.4051,-0.4044,-0.4039,-0.4018,-0.401,-0.4109,-0.4109,-0.411,-0.411,0,-0.4006,-0.4,-0.3983,-0.3994,-0.3994,-0.3979,-0.4005,-0.4001,-0.4021,-0.4036,-0.402,-0.4034,-0.4035,-0.4032,-0.4051,-0.4011,-0.4021,-0.4045,-0.4079,-0.4025,-0.4006,-0.3999,-0.4104,-0.4106,-0.4107,-0.4107,0,0,-0.3915,-0.3941,-0.3934,-0.3939,-0.3955,-0.395,-0.3936,-0.3938,-0.3934,-0.394,-0.3929,-0.3923,-0.3944,-0.3947,-0.3967,-0.3953,-0.3904,-0.3978,-0.3979,-0.3963,-0.386,-0.3841,-0.3832,-0.392,-0.3919,-0.3917,-0.3859,0,-0.3859,-0.3837,-0.3862,-0.3835,-0.3828,-0.3864,-0.3852,-0.386,-0.3873,-0.3869,-0.3884,-0.3879,-0.3908,-0.391,-0.3897,-0.3912,-0.3883,-0.3917,-0.3908,-0.3907,-0.3904,-0.3822,-0.3803,-0.3747,-0.3851,-0.385,-0.3849,0,-0.3791,-0.3794,-0.3766,-0.3783,-0.3781,-0.377,-0.3773,-0.3768,-0.3778,-0.3789,-0.3791,-0.3814,-0.3801,-0.3833,-0.3814,-0.3836,-0.3834,-0.3841,-0.3839,-0.3839,-0.3875,-0.3819,-0.373,-0.3721,-0.3838,-0.3839,-0.384,0,-0.3725,-0.3723,-0.3705,-0.3708,-0.3728,-0.3718,-0.3726,-0.3737,-0.3736,-0.3739,-0.3738,-0.3739,-0.3739,-0.3738,-0.3761,-0.3783,-0.3738,-0.3773,-0.3745,-0.3745,-0.3734,-0.3734,-0.3642,-0.3734,-0.3734,-0.3734,-0.3734,0,-0.366,-0.3641,-0.3675,-0.3664,-0.3644,-0.3673,-0.3651,-0.3662,-0.3672,-0.3663,-0.3694,-0.3684,-0.3715,-0.3709,-0.3726,-0.3707,-0.3707,-0.3714,-0.3719,-0.3711,-0.371,-0.3709,-0.3714,-0.3732,-0.3732,-0.3733,-0.3733,0,-0.3583,-0.3606,-0.3589,-0.3609,-0.3613,-0.3597,-0.3613,-0.3603,-0.3619,-0.3607,-0.3606,-0.3629,-0.3623,-0.3646,-0.3643,-0.3655,-0.3626,-0.3637,-0.3623,-0.3626,-0.3597,-0.3598,-0.3501,-0.3489,-0.3588,-0.3587,-0.3586,0,-0.354,-0.3526,-0.3544,-0.354,-0.3547,-0.354,-0.3539,-0.3567,-0.3564,-0.3573,-0.3562,-0.3558,-0.3557,-0.3545,-0.3561,-0.3559,-0.3571,-0.3536,-0.357,-0.3562,-0.3569,-0.3569,-0.3567,-0.3529,-0.3528,-0.3527,-0.3526,0,-0.346,-0.3471,-0.3469,-0.347,-0.3468,-0.347,-0.3474,-0.3469,-0.3498,-0.3494,-0.3488,-0.3487,-0.3484,-0.3479,-0.3481,-0.3488,-0.3511,-0.3515,-0.3509,-0.35,-0.3491,-0.3494,-0.3602,-0.3517,-0.3518,-0.3519,-0.3519,-0.352,-0.3398,-0.3387,-0.3397,-0.3393,-0.3399,-0.3402,-0.3393,-0.3407,-0.3403,-0.3403,-0.3419,-0.3409,-0.3418,-0.3422,-0.3426,-0.3419,-0.3434,-0.3425,-0.3422,-0.3419,-0.3414,-0.3493,-0.3419,-0.3419,-0.3419,-0.342,-0.342,0,-0.3319,-0.3327,-0.3323,-0.3328,-0.3324,-0.3347,-0.3352,-0.3347,-0.3338,-0.3344,-0.3342,-0.3334,-0.333,-0.3346,-0.3343,-0.3334,-0.3344,-0.3332,-0.3332,-0.3333,-0.3401,-0.3406,-0.3323,-0.3323,-0.3323,-0.3323,-0.3323,-0.3323,-0.3277,-0.3259,-0.3271,-0.3255,-0.3264,-0.3255,-0.3256,-0.3258,-0.3263,-0.3253,-0.325,-0.326,-0.3269,-0.3267,-0.3264,-0.3268,-0.3265,-0.3249,-0.3257,-0.332,-0.3329,-0.3338,-0.3343,-0.3249,-0.3248,-0.3191,-0.319,-0.319]}]]